Date String (YYYY-MM-DD hh:mm:ss) UTC,Instrument flags,absolute air pressure of the measurement (hPa),sample flow rate (lpm),inlet stack bypass flow (lpm),air temperature of the measurement (°C),ambient temperature measured by the external sensor (°C),aerosol sample conditioner tube jacket temperature (°C),OPC LED temperature (°C),internal box temperature (°C),relative humidity of the measurement (%),span deviation,mass concentration of particles derived from Lorenz-Mie calculation of OPC scattering (μg/m³),mass concentration of particles derived from Lorenz-Mie calculation of OPC scattering (μg/m³),mass concentration of particles derived from Lorenz-Mie calculation of OPC scattering (μg/m³)
DateTimeUTC,F1_M11,P_M11,Q1_M11,Q2_M11,T1_M11,T2_M11,T3_M11,T4_M11,T5_M11,U1_M11,ZSPAN_M11,X2_M11,X0_M11,X1_M11
2023-10-23 13:00:00,SystemResetWarning,0823.4,5.00,000.00,028.6,027.0,000.0,037.0,030.2,12.2,0000.0,0004.72,0010.91,0003.86
2023-10-23 13:01:00,SystemResetWarning,0823.5,5.00,000.00,028.6,027.0,000.0,037.0,030.2,12.2,0000.0,0004.70,0011.17,0003.87
2023-10-23 13:02:00,SystemResetWarning,0823.4,5.00,000.00,028.6,027.1,000.0,037.0,030.2,12.1,0000.0,0004.73,0011.53,0003.88
2023-10-23 13:03:00,SystemResetWarning,0823.5,5.00,000.00,028.6,027.0,000.0,037.0,030.2,12.1,0000.0,0004.77,0011.62,0003.90
2023-10-23 13:04:00,SystemResetWarning,0823.5,5.00,000.00,028.6,027.0,000.0,037.0,030.2,12.3,0000.0,0004.76,0011.58,0003.92
2023-10-23 13:05:00,SystemResetWarning,0823.5,5.00,000.00,028.6,027.0,000.0,037.0,030.2,12.2,0000.0,0004.77,0011.28,0003.92
2023-10-23 13:06:00,SystemResetWarning,0823.4,5.00,000.00,028.6,027.0,000.0,037.0,030.2,12.3,0000.0,0004.81,0011.58,0003.91
2023-10-23 13:07:00,SystemResetWarning,0823.4,5.00,000.00,028.6,027.0,000.0,037.0,030.2,12.3,0000.0,0004.84,0011.59,0003.91
2023-10-23 13:08:00,SystemResetWarning,0823.4,5.00,000.00,028.6,027.0,000.0,037.0,030.2,12.4,0002.9,0004.78,0011.07,0003.91
2023-10-23 13:09:00,SystemResetWarning,0823.5,5.00,000.00,028.6,027.1,000.0,037.0,030.2,12.4,0002.8,0004.79,0012.25,0003.90
2023-10-23 13:10:00,SystemResetWarning,0823.5,5.00,000.00,028.6,027.1,000.0,037.0,030.2,12.4,0003.1,0004.78,0012.36,0003.89
2023-10-23 13:11:00,SystemResetWarning,0823.5,5.00,000.00,028.6,027.1,000.0,037.0,030.2,12.5,0003.0,0004.87,0012.51,0003.89
2023-10-23 13:12:00,SystemResetWarning,0823.5,5.00,000.00,028.6,027.1,000.0,037.0,030.2,12.5,0000.2,0004.90,0012.61,0003.89
2023-10-23 13:13:00,SystemResetWarning,0823.5,5.00,000.00,028.6,027.0,000.0,037.0,030.2,12.6,0000.0,0004.87,0012.11,0003.90
2023-10-23 13:14:00,SystemResetWarning,0823.5,5.00,000.00,028.6,027.1,000.0,037.0,030.2,12.6,0000.0,0004.87,0011.92,0003.90
2023-10-23 13:15:00,SystemResetWarning,0823.5,5.00,000.00,028.6,027.1,000.0,037.0,030.2,12.5,0000.0,0004.88,0012.09,0003.92
2023-10-23 13:16:00,SystemResetWarning,0823.5,4.99,000.00,028.6,027.1,000.0,037.0,030.2,12.4,0000.0,0004.85,0012.26,0003.92
2023-10-23 13:17:00,SystemResetWarning,0823.5,5.00,000.00,028.6,027.0,000.0,037.0,030.2,12.3,0000.0,0004.81,0011.99,0003.93
2023-10-23 13:18:00,SystemResetWarning,0823.5,5.00,000.00,028.5,027.0,000.0,037.0,030.1,12.3,0000.0,0004.77,0012.28,0003.92
2023-10-23 13:19:00,SystemResetWarning,0823.5,4.99,000.00,028.5,027.0,000.0,037.0,030.1,12.3,0000.0,0004.80,0013.02,0003.92
2023-10-23 13:20:00,SystemResetWarning,0823.4,5.00,000.00,028.5,027.0,000.0,037.0,030.1,12.4,0000.0,0004.81,0012.42,0003.93
2023-10-23 13:21:00,SystemResetWarning,0823.5,5.00,000.00,028.5,027.0,000.0,037.0,030.1,12.6,0000.0,0004.85,0012.02,0003.94
2023-10-23 13:22:00,SystemResetWarning,0823.5,5.01,000.00,028.5,027.0,000.0,036.9,030.1,12.7,0000.0,0004.88,0012.12,0003.94
2023-10-23 13:23:00,SystemResetWarning,0823.5,5.01,000.00,028.5,027.0,000.0,036.9,030.1,12.5,0000.0,0004.82,0012.01,0003.93
2023-10-23 13:24:00,SystemResetWarning,0823.5,5.01,000.00,028.5,027.0,000.0,036.9,030.1,12.4,0000.0,0004.82,0011.74,0003.92
2023-10-23 13:25:00,SystemResetWarning,0823.5,5.00,000.00,028.5,027.0,000.0,036.9,030.1,12.4,0000.0,0004.85,0011.94,0003.92
2023-10-23 13:26:00,SystemResetWarning,0823.5,4.99,000.00,028.5,027.0,000.0,036.9,030.1,12.3,0000.0,0004.83,0012.01,0003.92
2023-10-23 13:27:00,SystemResetWarning,0823.5,5.00,000.00,028.5,027.0,000.0,036.9,030.1,12.3,0000.0,0004.84,0012.39,0003.91
2023-10-23 13:28:00,SystemResetWarning,0823.5,5.00,000.00,028.5,027.0,000.0,036.9,030.2,12.4,0000.0,0004.85,0012.45,0003.91
2023-10-23 13:29:00,SystemResetWarning,0823.5,5.00,000.00,028.5,027.0,000.0,036.9,030.2,12.4,0000.0,0004.81,0012.29,0003.90
2023-10-23 13:30:00,SystemResetWarning,0823.5,5.00,000.00,028.5,027.0,000.0,036.9,030.2,12.3,0000.0,0004.76,0011.44,0003.91
2023-10-23 13:31:00,SystemResetWarning,0823.5,5.00,000.00,028.5,027.0,000.0,036.9,030.2,12.3,0000.0,0004.77,0011.23,0003.90
2023-10-23 13:32:00,SystemResetWarning,0823.5,5.00,000.00,028.5,027.0,000.0,036.9,030.2,12.2,0000.0,0004.76,0011.94,0003.89
2023-10-23 13:33:00,SystemResetWarning,0823.5,5.00,000.00,028.5,027.0,000.0,036.9,030.2,12.2,0000.0,0004.75,0012.06,0003.90
2023-10-23 13:34:00,SystemResetWarning,0823.5,5.00,000.00,028.5,027.0,000.0,036.9,030.2,12.2,0000.0,0004.79,0012.85,0003.91
2023-10-23 13:35:00,SystemResetWarning,0823.5,4.99,000.00,028.5,027.0,000.0,036.9,030.1,12.2,0000.0,0004.86,0013.68,0003.93
2023-10-23 13:36:00,SystemResetWarning,0823.5,5.01,000.00,028.5,027.0,000.0,036.9,030.1,12.1,0000.0,0004.89,0013.76,0003.93
2023-10-23 13:37:00,SystemResetWarning,0823.5,5.01,000.00,028.5,027.0,000.0,036.9,030.1,12.0,0000.0,0004.88,0013.25,0003.93
2023-10-23 13:38:00,SystemResetWarning,0823.5,5.01,000.00,028.5,027.0,000.0,036.9,030.2,12.2,0000.0,0004.90,0012.83,0003.94
2023-10-23 13:39:00,SystemResetWarning,0823.5,5.01,000.00,028.5,027.0,000.0,036.9,030.1,12.1,0000.0,0004.91,0013.14,0003.94
2023-10-23 13:40:00,SystemResetWarning,0823.5,5.00,000.00,028.5,027.0,000.0,036.9,030.2,12.1,0000.0,0004.93,0014.13,0003.95
2023-10-23 13:41:00,SystemResetWarning,0823.5,4.99,000.00,028.5,027.0,000.0,036.9,030.1,12.1,0000.0,0005.01,0014.55,0003.94
2023-10-23 13:42:00,SystemResetWarning,0823.5,5.00,000.00,028.5,026.9,000.0,036.9,030.1,12.0,0000.0,0005.06,0015.02,0003.95
2023-10-23 13:43:00,SystemResetWarning,0823.5,5.00,000.00,028.5,026.9,000.0,036.9,030.1,12.1,0000.0,0005.05,0014.29,0003.96
2023-10-23 13:44:00,SystemResetWarning,0823.5,5.00,000.00,028.5,026.9,000.0,036.9,030.1,12.0,0000.0,0005.02,0014.60,0003.97
2023-10-23 13:45:00,SystemResetWarning,0823.5,5.01,000.00,028.5,026.9,000.0,036.9,030.1,11.9,0000.0,0004.97,0013.83,0003.97
2023-10-23 13:46:00,SystemResetWarning,0823.5,5.01,000.00,028.5,026.9,000.0,036.9,030.2,11.8,0000.0,0004.95,0013.86,0003.97
2023-10-23 13:47:00,SystemResetWarning,0823.5,5.01,000.00,028.5,027.0,000.0,036.9,030.2,11.9,0000.0,0004.91,0013.97,0003.97
2023-10-23 13:48:00,SystemResetWarning,0823.6,4.99,000.00,028.5,027.0,000.0,036.9,030.2,11.8,0000.0,0004.93,0013.97,0003.98
2023-10-23 13:49:00,SystemResetWarning,0823.6,4.99,000.00,028.5,027.0,000.0,036.9,030.2,11.7,0000.0,0004.96,0014.02,0003.98
2023-10-23 13:50:00,SystemResetWarning,0823.6,5.00,000.00,028.5,027.0,000.0,036.9,030.2,11.8,0000.0,0004.99,0013.73,0003.99
2023-10-23 13:51:00,SystemResetWarning,0823.6,5.01,000.00,028.5,027.0,000.0,036.9,030.2,11.6,0000.0,0005.04,0012.34,0003.99
2023-10-23 13:52:00,SystemResetWarning,0823.6,5.00,000.00,028.5,027.0,000.0,036.9,030.1,11.5,0000.0,0005.07,0011.80,0004.02
2023-10-23 13:53:00,SystemResetWarning,0823.6,5.01,000.00,028.5,027.0,000.0,036.9,030.1,11.6,0000.0,0005.02,0012.03,0004.03
2023-10-23 13:54:00,SystemResetWarning,0823.6,5.00,000.00,028.5,027.0,000.0,036.9,030.2,11.6,0000.0,0005.01,0012.19,0004.04
2023-10-23 13:55:00,SystemResetWarning,0823.6,5.00,000.00,028.5,027.0,000.0,036.9,030.2,11.8,0000.0,0005.00,0012.16,0004.05
2023-10-23 13:56:00,SystemResetWarning,0823.7,5.00,000.00,028.5,027.0,000.0,036.9,030.2,11.9,0000.0,0005.02,0011.86,0004.06
2023-10-23 13:57:00,SystemResetWarning,0823.6,5.00,000.00,028.5,027.0,000.0,036.9,030.2,12.0,0000.0,0005.03,0012.03,0004.06
2023-10-23 13:58:00,SystemResetWarning,0823.6,5.00,000.00,028.5,027.0,000.0,036.9,030.2,12.0,0000.0,0005.03,0012.30,0004.05
2023-10-23 13:59:00,SystemResetWarning,0823.6,5.00,000.00,028.5,027.0,000.0,036.9,030.2,12.0,0000.0,0005.07,0012.83,0004.05
